Voltar ao catálogo

LEASAT 5

AtivoComunicaçõesGEO
NORAD 20410·PAYLOAD·🇺🇸 United States

Lançado Jan 9, 1990 de Cape Canaveral Space Force Station

Loading…

TLE

AtualizadoSource: Space-Track

Época: Sep 13, 2026, 22:55 UTC

1 20410U 90002B   26256.95530906 -.00000125  00000-0  00000-0 0  9995
2 20410  11.0796 352.4335 0002556  73.1497 274.2834  0.99599488119302

Acompanhe LEASAT 5 em tempo real com AllMySat

Download on the App Store